HJS-4A

导读

HJS-4A是中国于北京时间2023年12月30日8时发射的人造卫星,是中国航天2023年末收官发射任务的重要组成部分。该卫星进入预定轨道后,将在空间科学研究、对地观测等领域发挥作用,进一步拓展中国在航天领域的探索布局,为相关技术验证与应用实践提供支撑,推动中国航天事业持续发展。

基本信息
目录编号:
58691
目录名称:
HJS-4A
国际标识:
2023-212A
轨道中心:
EARTH
卫星名称:
HJS-4A
卫星全名:
--
卫星状态:
在轨 (已飞行898 天)
发射日期:
2023-12-30 UTC
国别 :
中国 (CN)
星等 :
--
轨道信息
数据来源 国际轨道数据 AOE轨道数据
星历时间 2026-06-15T02:26:24+0800
7小时前
查看轨道信息
2026-06-15T00:00:00+0800
10小时前
查看轨道信息
半长轴 7481.993km 7481.996km
偏心率 0.0001195 0.0001281
轨道倾角 50.002° 50.003°
近地点辐角 109.056° 100.265°
升交点赤经 352.601° 352.974°
平近点角 251.045° 128.550°
近地点 1102.961km 1102.9km
远地点 1104.751km 1104.818km
周期 107.346分钟 107.346分钟
每日圈数 13.414573 13.414566
详细信息
使用方式:
暂无
2D轨道图
3D轨道图
轨道高度分析图
轨道倾角分析图
轨道综合分析图
查看轨道综合分析图